owner,sensor,date,latitude,longitude,vertical_datum,wind_speed,wind_to_direction,wind_speed_of_gust,qcFlag 
ADCP,ioos:station:wmo:42364:1,2017-05-01T00:30:00Z,29.0600,-88.0900,122.0,11.1,149.0,99.0,'11111222,11111222,11144222' 
ADCP,ioos:station:wmo:42364:1,2017-05-01T01:30:00Z,29.0600,-88.0900,122.0,11.2,149.0,99.0,'11111222,11111222,11144222' 
ADCP,ioos:station:wmo:42364:1,2017-05-01T02:30:00Z,29.0600,-88.0900,122.0,11.1,157.0,99.0,'11111222,11111222,11144222' 
ADCP,ioos:station:wmo:42364:1,2017-05-01T04:30:00Z,29.0600,-88.0900,122.0,12.2,145.0,99.0,'11111222,11111222,11144222' 
ADCP,ioos:station:wmo:42364:1,2017-05-01T05:30:00Z,29.0600,-88.0900,122.0,9.6,149.0,99.0,'11111222,11111222,11144222' 
ADCP,ioos:station:wmo:42364:1,2017-05-01T06:30:00Z,29.0600,-88.0900,122.0,22.3,33.0,99.0,'11111222,11111222,11144222' 
ADCP,ioos:station:wmo:42364:1,2017-05-01T07:30:00Z,29.0600,-88.0900,122.0,11.7,163.0,99.0,'11111222,11111222,11144222' 
ADCP,ioos:station:wmo:42364:1,2017-05-01T08:30:00Z,29.0600,-88.0900,122.0,12.3,167.0,99.0,'11111222,11111222,11144222' 
ADCP,ioos:station:wmo:42364:1,2017-05-01T09:30:00Z,29.0600,-88.0900,122.0,12.1,149.0,99.0,'11111222,11111222,11144222' 
ADCP,ioos:station:wmo:42364:1,2017-05-01T10:30:00Z,29.0600,-88.0900,122.0,4.7,140.0,99.0,'11111222,11111222,11144222' 
ADCP,ioos:station:wmo:42364:1,2017-05-01T11:30:00Z,29.0600,-88.0900,122.0,1.2,301.0,99.0,'11111222,11111222,11144222' 
ADCP,ioos:station:wmo:42364:1,2017-05-01T12:30:00Z,29.0600,-88.0900,122.0,3.1,313.0,99.0,'11111222,11111222,11144222' 
ADCP,ioos:station:wmo:42364:1,2017-05-01T13:30:00Z,29.0600,-88.0900,122.0,5.3,335.0,99.0,'11111222,11111222,11144222' 
ADCP,ioos:station:wmo:42364:1,2017-05-01T14:30:00Z,29.0600,-88.0900,122.0,6.1,345.0,99.0,'11111222,11111222,11144222' 
ADCP,ioos:station:wmo:42364:1,2017-05-01T15:30:00Z,29.0600,-88.0900,122.0,6.6,357.0,99.0,'11111222,11111222,11144222' 
ADCP,ioos:station:wmo:42364:1,2017-05-01T16:30:00Z,29.0600,-88.0900,122.0,5.5,15.0,99.0,'11111222,11111222,11144222' 
ADCP,ioos:station:wmo:42364:1,2017-05-01T17:30:00Z,29.0600,-88.0900,122.0,4.7,5.0,99.0,'11111222,11111222,11144222' 
ADCP,ioos:station:wmo:42364:1,2017-05-01T18:30:00Z,29.0600,-88.0900,122.0,4.1,3.0,99.0,'11111222,11111222,11144222' 
ADCP,ioos:station:wmo:42364:1,2017-05-01T19:30:00Z,29.0600,-88.0900,122.0,3.3,359.0,99.0,'11111222,11111222,11144222' 
ADCP,ioos:station:wmo:42364:1,2017-05-01T20:30:00Z,29.0600,-88.0900,122.0,2.6,3.0,99.0,'11111222,11111222,11144222' 
ADCP,ioos:station:wmo:42364:1,2017-05-01T21:30:00Z,29.0600,-88.0900,122.0,2.3,357.0,99.0,'11111222,11111222,11144222' 
ADCP,ioos:station:wmo:42364:1,2017-05-01T22:30:00Z,29.0600,-88.0900,122.0,2.1,8.0,99.0,'11111222,11111222,11144222' 
ADCP,ioos:station:wmo:42364:1,2017-05-01T23:30:00Z,29.0600,-88.0900,122.0,0.7,354.0,99.0,'11111222,11111222,11144222' 
ADCP,ioos:station:wmo:42364:1,2017-05-02T00:30:00Z,29.0600,-88.0900,122.0,0.2,359.0,99.0,'11111222,11111222,11144222' 
ADCP,ioos:station:wmo:42364:1,2017-05-02T01:30:00Z,29.0600,-88.0900,122.0,0.0,0.0,99.0,'11111222,11111222,11144222' 
ADCP,ioos:station:wmo:42364:1,2017-05-02T02:30:00Z,29.0600,-88.0900,122.0,0.0,0.0,99.0,'11111222,11111222,11144222' 
ADCP,ioos:station:wmo:42364:1,2017-05-02T03:30:00Z,29.0600,-88.0900,122.0,0.0,0.0,99.0,'11111222,11111222,11144222' 
ADCP,ioos:station:wmo:42364:1,2017-05-02T04:30:00Z,29.0600,-88.0900,122.0,0.0,0.0,99.0,'11111222,11111222,11144222' 
ADCP,ioos:station:wmo:42364:1,2017-05-02T05:30:00Z,29.0600,-88.0900,122.0,0.1,359.0,99.0,'11111222,11111222,11144222' 
ADCP,ioos:station:wmo:42364:1,2017-05-02T06:30:00Z,29.0600,-88.0900,122.0,0.5,358.0,99.0,'11111222,11111222,11144222' 
ADCP,ioos:station:wmo:42364:1,2017-05-02T07:30:00Z,29.0600,-88.0900,122.0,0.1,360.0,99.0,'11111222,11144222,11144222' 
ADCP,ioos:station:wmo:42364:1,2017-05-02T08:30:00Z,29.0600,-88.0900,122.0,0.0,0.0,99.0,'11111222,11111222,11144222' 
ADCP,ioos:station:wmo:42364:1,2017-05-02T09:30:00Z,29.0600,-88.0900,122.0,0.0,0.0,99.0,'11111222,11111222,11144222' 
ADCP,ioos:station:wmo:42364:1,2017-05-02T10:30:00Z,29.0600,-88.0900,122.0,0.4,17.0,99.0,'11111222,11111222,11144222' 
ADCP,ioos:station:wmo:42364:1,2017-05-02T11:30:00Z,29.0600,-88.0900,122.0,1.6,21.0,99.0,'11111222,11111222,11144222' 
ADCP,ioos:station:wmo:42364:1,2017-05-02T12:30:00Z,29.0600,-88.0900,122.0,3.5,33.0,99.0,'11111222,11111222,11144222' 
ADCP,ioos:station:wmo:42364:1,2017-05-02T13:30:00Z,29.0600,-88.0900,122.0,3.5,50.0,99.0,'11111222,11111222,11144222' 
ADCP,ioos:station:wmo:42364:1,2017-05-02T14:30:00Z,29.0600,-88.0900,122.0,4.3,56.0,99.0,'11111222,11111222,11144222' 
ADCP,ioos:station:wmo:42364:1,2017-05-02T15:30:00Z,29.0600,-88.0900,122.0,4.5,54.0,99.0,'11111222,11111222,11144222' 
ADCP,ioos:station:wmo:42364:1,2017-05-02T16:30:00Z,29.0600,-88.0900,122.0,4.8,52.0,99.0,'11111222,11111222,11144222' 
ADCP,ioos:station:wmo:42364:1,2017-05-02T17:30:00Z,29.0600,-88.0900,122.0,4.9,61.0,99.0,'11111222,11111222,11144222' 
ADCP,ioos:station:wmo:42364:1,2017-05-02T18:30:00Z,29.0600,-88.0900,122.0,5.6,58.0,99.0,'11111222,11111222,11144222' 
ADCP,ioos:station:wmo:42364:1,2017-05-02T19:30:00Z,29.0600,-88.0900,122.0,5.8,70.0,99.0,'11111222,11111222,11144222' 
ADCP,ioos:station:wmo:42364:1,2017-05-02T20:30:00Z,29.0600,-88.0900,122.0,5.3,76.0,99.0,'11111222,11111222,11144222' 
ADCP,ioos:station:wmo:42364:1,2017-05-02T21:30:00Z,29.0600,-88.0900,122.0,4.9,82.0,99.0,'11111222,11111222,11144222' 
ADCP,ioos:station:wmo:42364:1,2017-05-02T22:30:00Z,29.0600,-88.0900,122.0,4.8,84.0,99.0,'11111222,11111222,11144222' 
ADCP,ioos:station:wmo:42364:1,2017-05-02T23:30:00Z,29.0600,-88.0900,122.0,4.7,93.0,99.0,'11111222,11111222,11144222' 
ADCP,ioos:station:wmo:42364:1,2017-05-03T00:30:00Z,29.0600,-88.0900,122.0,5.2,88.0,99.0,'11111222,11111222,11144222' 
ADCP,ioos:station:wmo:42364:1,2017-05-03T01:30:00Z,29.0600,-88.0900,122.0,5.0,102.0,99.0,'11111222,11111222,11144222' 
ADCP,ioos:station:wmo:42364:1,2017-05-03T02:30:00Z,29.0600,-88.0900,122.0,4.1,110.0,99.0,'11111222,11111222,11144222' 
ADCP,ioos:station:wmo:42364:1,2017-05-03T03:30:00Z,29.0600,-88.0900,122.0,3.2,123.0,99.0,'11111222,11111222,11144222' 
ADCP,ioos:station:wmo:42364:1,2017-05-03T04:30:00Z,29.0600,-88.0900,122.0,3.2,155.0,99.0,'11111222,11111222,11144222' 
ADCP,ioos:station:wmo:42364:1,2017-05-03T05:30:00Z,29.0600,-88.0900,122.0,2.9,139.0,99.0,'11111222,11111222,11144222' 
ADCP,ioos:station:wmo:42364:1,2017-05-03T06:30:00Z,29.0600,-88.0900,122.0,2.7,118.0,99.0,'11111222,11111222,11144222' 
ADCP,ioos:station:wmo:42364:1,2017-05-03T07:30:00Z,29.0600,-88.0900,122.0,2.4,125.0,99.0,'11111222,11111222,11144222' 
ADCP,ioos:station:wmo:42364:1,2017-05-03T08:30:00Z,29.0600,-88.0900,122.0,3.2,113.0,99.0,'11111222,11111222,11144222' 
ADCP,ioos:station:wmo:42364:1,2017-05-03T09:30:00Z,29.0600,-88.0900,122.0,4.3,108.0,99.0,'11111222,11111222,11144222' 
ADCP,ioos:station:wmo:42364:1,2017-05-03T10:30:00Z,29.0600,-88.0900,122.0,5.3,111.0,99.0,'11111222,11111222,11144222' 
ADCP,ioos:station:wmo:42364:1,2017-05-03T11:30:00Z,29.0600,-88.0900,122.0,6.2,111.0,99.0,'11111222,11111222,11144222' 
ADCP,ioos:station:wmo:42364:1,2017-05-03T12:30:00Z,29.0600,-88.0900,122.0,5.9,119.0,99.0,'11111222,11111222,11144222' 
ADCP,ioos:station:wmo:42364:1,2017-05-03T13:30:00Z,29.0600,-88.0900,122.0,6.1,122.0,99.0,'11111222,11111222,11144222' 
ADCP,ioos:station:wmo:42364:1,2017-05-03T14:30:00Z,29.0600,-88.0900,122.0,6.2,119.0,99.0,'11111222,11111222,11144222' 
ADCP,ioos:station:wmo:42364:1,2017-05-03T15:30:00Z,29.0600,-88.0900,122.0,6.5,119.0,99.0,'11111222,11111222,11144222' 
ADCP,ioos:station:wmo:42364:1,2017-05-03T16:30:00Z,29.0600,-88.0900,122.0,7.2,131.0,99.0,'11111222,11111222,11144222' 
ADCP,ioos:station:wmo:42364:1,2017-05-03T17:30:00Z,29.0600,-88.0900,122.0,7.3,132.0,99.0,'11111222,11111222,11144222' 
ADCP,ioos:station:wmo:42364:1,2017-05-03T18:30:00Z,29.0600,-88.0900,122.0,8.0,132.0,99.0,'11111222,11111222,11144222' 
ADCP,ioos:station:wmo:42364:1,2017-05-03T19:30:00Z,29.0600,-88.0900,122.0,5.5,83.0,99.0,'11111222,11111222,11144222' 
ADCP,ioos:station:wmo:42364:1,2017-05-03T20:30:00Z,29.0600,-88.0900,122.0,7.8,66.0,99.0,'11111222,11111222,11144222' 
ADCP,ioos:station:wmo:42364:1,2017-05-03T21:30:00Z,29.0600,-88.0900,122.0,8.2,100.0,99.0,'11111222,11111222,11144222' 
ADCP,ioos:station:wmo:42364:1,2017-05-03T22:30:00Z,29.0600,-88.0900,122.0,7.3,131.0,99.0,'11111222,11111222,11144222' 
ADCP,ioos:station:wmo:42364:1,2017-05-03T23:30:00Z,29.0600,-88.0900,122.0,6.4,9.0,99.0,'11111222,11111222,11144222' 
ADCP,ioos:station:wmo:42364:1,2017-05-04T00:30:00Z,29.0600,-88.0900,122.0,11.8,17.0,99.0,'11111222,11111222,11144222' 
ADCP,ioos:station:wmo:42364:1,2017-05-04T01:30:00Z,29.0600,-88.0900,122.0,15.7,79.0,99.0,'11111222,11111222,11144222' 
ADCP,ioos:station:wmo:42364:1,2017-05-04T02:30:00Z,29.0600,-88.0900,122.0,13.0,104.0,99.0,'11111222,11111222,11144222' 
ADCP,ioos:station:wmo:42364:1,2017-05-04T03:30:00Z,29.0600,-88.0900,122.0,9.5,123.0,99.0,'11111222,11111222,11144222' 
ADCP,ioos:station:wmo:42364:1,2017-05-04T04:30:00Z,29.0600,-88.0900,122.0,11.0,136.0,99.0,'11111222,11111222,11144222' 
ADCP,ioos:station:wmo:42364:1,2017-05-04T05:30:00Z,29.0600,-88.0900,122.0,11.2,141.0,99.0,'11111222,11111222,11144222' 
ADCP,ioos:station:wmo:42364:1,2017-05-04T06:30:00Z,29.0600,-88.0900,122.0,11.1,139.0,99.0,'11111222,11111222,11144222' 
ADCP,ioos:station:wmo:42364:1,2017-05-04T07:30:00Z,29.0600,-88.0900,122.0,45.4,263.0,99.0,'11111222,11111222,11144222' 
ADCP,ioos:station:wmo:42364:1,2017-05-04T08:30:00Z,29.0600,-88.0900,122.0,8.8,150.0,99.0,'11111222,11111222,11144222' 
ADCP,ioos:station:wmo:42364:1,2017-05-04T09:30:00Z,29.0600,-88.0900,122.0,5.2,277.0,99.0,'11111222,11111222,11144222' 
ADCP,ioos:station:wmo:42364:1,2017-05-04T10:30:00Z,29.0600,-88.0900,122.0,8.2,340.0,99.0,'11111222,11111222,11144222' 
ADCP,ioos:station:wmo:42364:1,2017-05-04T11:30:00Z,29.0600,-88.0900,122.0,8.7,8.0,99.0,'11111222,11111222,11144222' 
ADCP,ioos:station:wmo:42364:1,2017-05-04T12:30:00Z,29.0600,-88.0900,122.0,5.2,4.0,99.0,'11111222,11111222,11144222' 
ADCP,ioos:station:wmo:42364:1,2017-05-04T13:30:00Z,29.0600,-88.0900,122.0,4.3,80.0,99.0,'11111222,11111222,11144222' 
ADCP,ioos:station:wmo:42364:1,2017-05-04T14:30:00Z,29.0600,-88.0900,122.0,8.7,176.0,99.0,'11111222,11111222,11144222' 
ADCP,ioos:station:wmo:42364:1,2017-05-04T15:30:00Z,29.0600,-88.0900,122.0,10.1,201.0,99.0,'11111222,11111222,11144222' 
ADCP,ioos:station:wmo:42364:1,2017-05-04T16:30:00Z,29.0600,-88.0900,122.0,8.6,227.0,99.0,'11111222,11111222,11144222' 
ADCP,ioos:station:wmo:42364:1,2017-05-04T17:30:00Z,29.0600,-88.0900,122.0,9.1,221.0,99.0,'11111222,11111222,11144222' 
ADCP,ioos:station:wmo:42364:1,2017-05-04T18:30:00Z,29.0600,-88.0900,122.0,9.0,215.0,99.0,'11111222,11111222,11144222' 
ADCP,ioos:station:wmo:42364:1,2017-05-04T19:30:00Z,29.0600,-88.0900,122.0,9.0,239.0,99.0,'11111222,11111222,11144222' 
ADCP,ioos:station:wmo:42364:1,2017-05-04T20:30:00Z,29.0600,-88.0900,122.0,6.0,282.0,99.0,'11111222,11111222,11144222' 
ADCP,ioos:station:wmo:42364:1,2017-05-04T21:30:00Z,29.0600,-88.0900,122.0,1.2,28.0,99.0,'11111222,11111222,11144222' 
ADCP,ioos:station:wmo:42364:1,2017-05-04T22:30:00Z,29.0600,-88.0900,122.0,1.3,63.0,99.0,'11111222,11111222,11144222' 
ADCP,ioos:station:wmo:42364:1,2017-05-04T23:30:00Z,29.0600,-88.0900,122.0,1.3,64.0,99.0,'11111222,11111222,11144222' 
ADCP,ioos:station:wmo:42364:1,2017-05-05T00:30:00Z,29.0600,-88.0900,122.0,1.9,78.0,99.0,'11111222,11111222,11144222' 
ADCP,ioos:station:wmo:42364:1,2017-05-05T01:30:00Z,29.0600,-88.0900,122.0,2.2,79.0,99.0,'11111222,11111222,11144222' 
ADCP,ioos:station:wmo:42364:1,2017-05-05T02:30:00Z,29.0600,-88.0900,122.0,2.0,94.0,99.0,'11111222,11111222,11144222' 
ADCP,ioos:station:wmo:42364:1,2017-05-05T03:30:00Z,29.0600,-88.0900,122.0,2.2,101.0,99.0,'11111222,11111222,11144222' 
ADCP,ioos:station:wmo:42364:1,2017-05-05T04:30:00Z,29.0600,-88.0900,122.0,2.2,127.0,99.0,'11111222,11111222,11144222' 
ADCP,ioos:station:wmo:42364:1,2017-05-05T05:30:00Z,29.0600,-88.0900,122.0,1.8,145.0,99.0,'11111222,11111222,11144222' 
ADCP,ioos:station:wmo:42364:1,2017-05-05T06:30:00Z,29.0600,-88.0900,122.0,1.7,127.0,99.0,'11111222,11111222,11144222' 
ADCP,ioos:station:wmo:42364:1,2017-05-05T07:30:00Z,29.0600,-88.0900,122.0,1.9,128.0,99.0,'11111222,11111222,11144222' 
ADCP,ioos:station:wmo:42364:1,2017-05-05T08:30:00Z,29.0600,-88.0900,122.0,1.6,95.0,99.0,'11111222,11111222,11144222' 
ADCP,ioos:station:wmo:42364:1,2017-05-05T09:30:00Z,29.0600,-88.0900,122.0,1.3,65.0,99.0,'11111222,11111222,11144222' 
ADCP,ioos:station:wmo:42364:1,2017-05-05T10:30:00Z,29.0600,-88.0900,122.0,1.2,60.0,99.0,'11111222,11111222,11144222' 
ADCP,ioos:station:wmo:42364:1,2017-05-05T11:30:00Z,29.0600,-88.0900,122.0,0.9,43.0,99.0,'11111222,11111222,11144222' 
ADCP,ioos:station:wmo:42364:1,2017-05-05T12:30:00Z,29.0600,-88.0900,122.0,0.9,32.0,99.0,'11111222,11111222,11144222' 
ADCP,ioos:station:wmo:42364:1,2017-05-05T13:30:00Z,29.0600,-88.0900,122.0,2.1,318.0,99.0,'11111222,11111222,11144222' 
ADCP,ioos:station:wmo:42364:1,2017-05-05T14:30:00Z,29.0600,-88.0900,122.0,1.1,36.0,99.0,'11111222,11111222,11144222' 
ADCP,ioos:station:wmo:42364:1,2017-05-05T15:30:00Z,29.0600,-88.0900,122.0,1.6,61.0,99.0,'11111222,11111222,11144222' 
ADCP,ioos:station:wmo:42364:1,2017-05-05T16:30:00Z,29.0600,-88.0900,122.0,1.9,67.0,99.0,'11111222,11111222,11144222' 
ADCP,ioos:station:wmo:42364:1,2017-05-05T17:30:00Z,29.0600,-88.0900,122.0,1.9,61.0,99.0,'11111222,11111222,11144222' 
ADCP,ioos:station:wmo:42364:1,2017-05-05T18:30:00Z,29.0600,-88.0900,122.0,2.1,27.0,99.0,'11111222,11111222,11144222' 
ADCP,ioos:station:wmo:42364:1,2017-05-05T19:30:00Z,29.0600,-88.0900,122.0,1.9,67.0,99.0,'11111222,11111222,11144222' 
ADCP,ioos:station:wmo:42364:1,2017-05-05T20:30:00Z,29.0600,-88.0900,122.0,2.1,79.0,99.0,'11111222,11111222,11144222' 
ADCP,ioos:station:wmo:42364:1,2017-05-05T21:30:00Z,29.0600,-88.0900,122.0,2.0,82.0,99.0,'11111222,11111222,11144222' 
ADCP,ioos:station:wmo:42364:1,2017-05-05T22:30:00Z,29.0600,-88.0900,122.0,1.7,73.0,99.0,'11111222,11111222,11144222' 
ADCP,ioos:station:wmo:42364:1,2017-05-05T23:30:00Z,29.0600,-88.0900,122.0,1.8,84.0,99.0,'11111222,11111222,11144222' 
ADCP,ioos:station:wmo:42364:1,2017-05-06T00:30:00Z,29.0600,-88.0900,122.0,1.6,81.0,99.0,'11111222,11111222,11144222' 
ADCP,ioos:station:wmo:42364:1,2017-05-06T01:30:00Z,29.0600,-88.0900,122.0,1.3,77.0,99.0,'11111222,11111222,11144222' 
ADCP,ioos:station:wmo:42364:1,2017-05-06T02:30:00Z,29.0600,-88.0900,122.0,0.7,54.0,99.0,'11111222,11111222,11144222' 
ADCP,ioos:station:wmo:42364:1,2017-05-06T04:30:00Z,29.0600,-88.0900,122.0,0.3,347.0,99.0,'11111222,11111222,11144222' 
ADCP,ioos:station:wmo:42364:1,2017-05-06T05:30:00Z,29.0600,-88.0900,122.0,0.1,353.0,99.0,'11111222,11111222,11144222' 
ADCP,ioos:station:wmo:42364:1,2017-05-06T06:30:00Z,29.0600,-88.0900,122.0,1.4,344.0,99.0,'11111222,11111222,11144222' 
ADCP,ioos:station:wmo:42364:1,2017-05-06T07:30:00Z,29.0600,-88.0900,122.0,5.0,343.0,99.0,'11111222,11111222,11144222' 
ADCP,ioos:station:wmo:42364:1,2017-05-06T08:30:00Z,29.0600,-88.0900,122.0,5.5,351.0,99.0,'11111222,11111222,11144222' 
ADCP,ioos:station:wmo:42364:1,2017-05-06T09:30:00Z,29.0600,-88.0900,122.0,4.1,355.0,99.0,'11111222,11111222,11144222' 
ADCP,ioos:station:wmo:42364:1,2017-05-06T10:30:00Z,29.0600,-88.0900,122.0,3.6,353.0,99.0,'11111222,11111222,11144222' 
ADCP,ioos:station:wmo:42364:1,2017-05-06T11:30:00Z,29.0600,-88.0900,122.0,3.5,356.0,99.0,'11111222,11111222,11144222' 
ADCP,ioos:station:wmo:42364:1,2017-05-06T12:30:00Z,29.0600,-88.0900,122.0,3.6,1.0,99.0,'11111222,11111222,11144222' 
ADCP,ioos:station:wmo:42364:1,2017-05-06T13:30:00Z,29.0600,-88.0900,122.0,3.7,11.0,99.0,'11111222,11111222,11144222' 
ADCP,ioos:station:wmo:42364:1,2017-05-06T14:30:00Z,29.0600,-88.0900,122.0,1.9,2.0,99.0,'11111222,11111222,11144222' 
ADCP,ioos:station:wmo:42364:1,2017-05-06T15:30:00Z,29.0600,-88.0900,122.0,1.3,360.0,99.0,'11111222,11144222,11144222' 
ADCP,ioos:station:wmo:42364:1,2017-05-06T16:30:00Z,29.0600,-88.0900,122.0,0.6,359.0,99.0,'11111222,11111222,11144222' 
ADCP,ioos:station:wmo:42364:1,2017-05-06T17:30:00Z,29.0600,-88.0900,122.0,0.4,360.0,99.0,'11111222,11144222,11144222' 
ADCP,ioos:station:wmo:42364:1,2017-05-06T18:30:00Z,29.0600,-88.0900,122.0,0.0,0.0,99.0,'11111222,11111222,11144222' 
ADCP,ioos:station:wmo:42364:1,2017-05-06T19:30:00Z,29.0600,-88.0900,122.0,2.0,276.0,99.0,'11111222,11111222,11144222' 
ADCP,ioos:station:wmo:42364:1,2017-05-06T20:30:00Z,29.0600,-88.0900,122.0,1.4,302.0,99.0,'11111222,11111222,11144222' 
ADCP,ioos:station:wmo:42364:1,2017-05-06T21:30:00Z,29.0600,-88.0900,122.0,2.4,282.0,99.0,'11111222,11111222,11144222' 
ADCP,ioos:station:wmo:42364:1,2017-05-06T22:30:00Z,29.0600,-88.0900,122.0,2.2,281.0,99.0,'11111222,11111222,11144222' 
ADCP,ioos:station:wmo:42364:1,2017-05-06T23:30:00Z,29.0600,-88.0900,122.0,3.6,270.0,99.0,'11111222,11111222,11144222' 
ADCP,ioos:station:wmo:42364:1,2017-05-07T00:30:00Z,29.0600,-88.0900,122.0,4.2,266.0,99.0,'11111222,11111222,11144222' 
ADCP,ioos:station:wmo:42364:1,2017-05-07T01:30:00Z,29.0600,-88.0900,122.0,5.5,260.0,99.0,'11111222,11111222,11144222' 
ADCP,ioos:station:wmo:42364:1,2017-05-07T02:30:00Z,29.0600,-88.0900,122.0,5.7,259.0,99.0,'11111222,11111222,11144222' 
ADCP,ioos:station:wmo:42364:1,2017-05-07T03:30:00Z,29.0600,-88.0900,122.0,3.7,275.0,99.0,'11111222,11111222,11144222' 
ADCP,ioos:station:wmo:42364:1,2017-05-07T04:30:00Z,29.0600,-88.0900,122.0,2.3,291.0,99.0,'11111222,11111222,11144222' 
ADCP,ioos:station:wmo:42364:1,2017-05-07T05:30:00Z,29.0600,-88.0900,122.0,3.0,279.0,99.0,'11111222,11111222,11144222' 
ADCP,ioos:station:wmo:42364:1,2017-05-07T06:30:00Z,29.0600,-88.0900,122.0,1.5,313.0,99.0,'11111222,11111222,11144222' 
ADCP,ioos:station:wmo:42364:1,2017-05-07T07:30:00Z,29.0600,-88.0900,122.0,0.0,0.0,99.0,'11111222,11111222,11144222' 
ADCP,ioos:station:wmo:42364:1,2017-05-07T08:30:00Z,29.0600,-88.0900,122.0,0.0,0.0,99.0,'11111222,11111222,11144222' 
ADCP,ioos:station:wmo:42364:1,2017-05-07T09:30:00Z,29.0600,-88.0900,122.0,0.0,0.0,99.0,'11111222,11111222,11144222' 
ADCP,ioos:station:wmo:42364:1,2017-05-07T10:30:00Z,29.0600,-88.0900,122.0,0.1,357.0,99.0,'11111222,11111222,11144222' 
ADCP,ioos:station:wmo:42364:1,2017-05-07T11:30:00Z,29.0600,-88.0900,122.0,0.2,349.0,99.0,'11111222,11111222,11144222' 
ADCP,ioos:station:wmo:42364:1,2017-05-07T12:30:00Z,29.0600,-88.0900,122.0,0.0,359.0,99.0,'11111222,11111222,11144222' 
ADCP,ioos:station:wmo:42364:1,2017-05-07T13:30:00Z,29.0600,-88.0900,122.0,0.0,0.0,99.0,'11111222,11111222,11144222' 
ADCP,ioos:station:wmo:42364:1,2017-05-07T14:30:00Z,29.0600,-88.0900,122.0,0.0,359.0,99.0,'11111222,11111222,11144222' 
ADCP,ioos:station:wmo:42364:1,2017-05-07T15:30:00Z,29.0600,-88.0900,122.0,0.0,0.0,99.0,'11111222,11111222,11144222' 
ADCP,ioos:station:wmo:42364:1,2017-05-07T16:30:00Z,29.0600,-88.0900,122.0,0.0,359.0,99.0,'11111222,11111222,11144222' 
ADCP,ioos:station:wmo:42364:1,2017-05-07T17:30:00Z,29.0600,-88.0900,122.0,0.0,0.0,99.0,'11111222,11111222,11144222' 
ADCP,ioos:station:wmo:42364:1,2017-05-07T18:30:00Z,29.0600,-88.0900,122.0,0.0,0.0,99.0,'11111222,11111222,11144222' 
ADCP,ioos:station:wmo:42364:1,2017-05-07T19:30:00Z,29.0600,-88.0900,122.0,0.0,0.0,99.0,'11111222,11111222,11144222' 
ADCP,ioos:station:wmo:42364:1,2017-05-07T20:30:00Z,29.0600,-88.0900,122.0,0.0,0.0,99.0,'11111222,11111222,11144222' 
ADCP,ioos:station:wmo:42364:1,2017-05-07T21:30:00Z,29.0600,-88.0900,122.0,0.0,0.0,99.0,'11111222,11111222,11144222' 
ADCP,ioos:station:wmo:42364:1,2017-05-07T22:30:00Z,29.0600,-88.0900,122.0,0.0,0.0,99.0,'11111222,11111222,11144222' 
ADCP,ioos:station:wmo:42364:1,2017-05-07T23:30:00Z,29.0600,-88.0900,122.0,0.0,0.0,99.0,'11111222,11111222,11144222' 
ADCP,ioos:station:wmo:42364:1,2017-05-08T00:30:00Z,29.0600,-88.0900,122.0,0.0,0.0,99.0,'11111222,11111222,11144222' 
ADCP,ioos:station:wmo:42364:1,2017-05-08T01:30:00Z,29.0600,-88.0900,122.0,0.4,336.0,99.0,'11111222,11111222,11144222' 
ADCP,ioos:station:wmo:42364:1,2017-05-08T02:30:00Z,29.0600,-88.0900,122.0,1.5,271.0,99.0,'11111222,11111222,11144222' 
ADCP,ioos:station:wmo:42364:1,2017-05-08T03:30:00Z,29.0600,-88.0900,122.0,2.7,251.0,99.0,'11111222,11111222,11144222' 
ADCP,ioos:station:wmo:42364:1,2017-05-08T04:30:00Z,29.0600,-88.0900,122.0,4.3,246.0,99.0,'11111222,11111222,11144222' 
ADCP,ioos:station:wmo:42364:1,2017-05-08T05:30:00Z,29.0600,-88.0900,122.0,4.7,241.0,99.0,'11111222,11111222,11144222' 
ADCP,ioos:station:wmo:42364:1,2017-05-08T06:30:00Z,29.0600,-88.0900,122.0,4.8,242.0,99.0,'11111222,11111222,11144222' 
ADCP,ioos:station:wmo:42364:1,2017-05-08T07:30:00Z,29.0600,-88.0900,122.0,3.6,253.0,99.0,'11111222,11111222,11144222' 
ADCP,ioos:station:wmo:42364:1,2017-05-08T08:30:00Z,29.0600,-88.0900,122.0,2.2,273.0,99.0,'11111222,11111222,11144222' 
ADCP,ioos:station:wmo:42364:1,2017-05-08T09:30:00Z,29.0600,-88.0900,122.0,0.0,359.0,99.0,'11111222,11111222,11144222' 
ADCP,ioos:station:wmo:42364:1,2017-05-08T10:30:00Z,29.0600,-88.0900,122.0,0.0,0.0,99.0,'11111222,11111222,11144222' 
ADCP,ioos:station:wmo:42364:1,2017-05-08T11:30:00Z,29.0600,-88.0900,122.0,0.0,0.0,99.0,'11111222,11111222,11144222' 
ADCP,ioos:station:wmo:42364:1,2017-05-08T12:30:00Z,29.0600,-88.0900,122.0,0.1,360.0,99.0,'11111222,11144222,11144222' 
ADCP,ioos:station:wmo:42364:1,2017-05-08T13:30:00Z,29.0600,-88.0900,122.0,2.1,5.0,99.0,'11111222,11111222,11144222' 
ADCP,ioos:station:wmo:42364:1,2017-05-08T14:30:00Z,29.0600,-88.0900,122.0,2.8,17.0,99.0,'11111222,11111222,11144222' 
ADCP,ioos:station:wmo:42364:1,2017-05-08T15:30:00Z,29.0600,-88.0900,122.0,3.4,29.0,99.0,'11111222,11111222,11144222' 
ADCP,ioos:station:wmo:42364:1,2017-05-08T16:30:00Z,29.0600,-88.0900,122.0,3.7,33.0,99.0,'11111222,11111222,11144222' 
ADCP,ioos:station:wmo:42364:1,2017-05-08T17:30:00Z,29.0600,-88.0900,122.0,3.6,36.0,99.0,'11111222,11111222,11144222' 
ADCP,ioos:station:wmo:42364:1,2017-05-08T18:30:00Z,29.0600,-88.0900,122.0,2.8,45.0,99.0,'11111222,11111222,11144222' 
ADCP,ioos:station:wmo:42364:1,2017-05-08T19:30:00Z,29.0600,-88.0900,122.0,2.5,59.0,99.0,'11111222,11111222,11144222' 
ADCP,ioos:station:wmo:42364:1,2017-05-08T20:30:00Z,29.0600,-88.0900,122.0,1.0,46.0,99.0,'11111222,11111222,11144222' 
ADCP,ioos:station:wmo:42364:1,2017-05-08T21:30:00Z,29.0600,-88.0900,122.0,0.7,34.0,99.0,'11111222,11111222,11144222' 
ADCP,ioos:station:wmo:42364:1,2017-05-08T22:30:00Z,29.0600,-88.0900,122.0,1.2,39.0,99.0,'11111222,11111222,11144222' 
ADCP,ioos:station:wmo:42364:1,2017-05-08T23:30:00Z,29.0600,-88.0900,122.0,0.1,2.0,99.0,'11111222,11111222,11144222' 
ADCP,ioos:station:wmo:42364:1,2017-05-09T00:30:00Z,29.0600,-88.0900,122.0,0.1,353.0,99.0,'11111222,11111222,11144222' 
ADCP,ioos:station:wmo:42364:1,2017-05-09T01:30:00Z,29.0600,-88.0900,122.0,1.3,262.0,99.0,'11111222,11111222,11144222' 
ADCP,ioos:station:wmo:42364:1,2017-05-09T02:30:00Z,29.0600,-88.0900,122.0,3.3,223.0,99.0,'11111222,11111222,11144222' 
ADCP,ioos:station:wmo:42364:1,2017-05-09T03:30:00Z,29.0600,-88.0900,122.0,3.2,233.0,99.0,'11111222,11111222,11144222' 
ADCP,ioos:station:wmo:42364:1,2017-05-09T04:30:00Z,29.0600,-88.0900,122.0,2.9,234.0,99.0,'11111222,11111222,11144222' 
ADCP,ioos:station:wmo:42364:1,2017-05-09T05:30:00Z,29.0600,-88.0900,122.0,3.4,241.0,99.0,'11111222,11111222,11144222' 
ADCP,ioos:station:wmo:42364:1,2017-05-09T06:30:00Z,29.0600,-88.0900,122.0,2.3,249.0,99.0,'11111222,11111222,11144222' 
ADCP,ioos:station:wmo:42364:1,2017-05-09T07:30:00Z,29.0600,-88.0900,122.0,0.8,312.0,99.0,'11111222,11111222,11144222' 
ADCP,ioos:station:wmo:42364:1,2017-05-09T08:30:00Z,29.0600,-88.0900,122.0,0.0,0.0,99.0,'11111222,11111222,11144222' 
ADCP,ioos:station:wmo:42364:1,2017-05-09T09:30:00Z,29.0600,-88.0900,122.0,0.0,0.0,99.0,'11111222,11111222,11144222' 
ADCP,ioos:station:wmo:42364:1,2017-05-09T10:30:00Z,29.0600,-88.0900,122.0,0.0,0.0,99.0,'11111222,11111222,11144222' 